Simultaneous Nadir Overpasses (SNOs) Predictions

Prediction of SNOs between GOES-14 and NPP Satellite Orbit:

Table of predicted SNOs for the next 14.0 days since TLE Epoch: 6/14/2024
Index Date Time (GOES-14) GOES-14 Lat,Lon NPP Lat,Lon Distance(km) Time Diff (sec)
1 06/14/2024 20:36:03 0.02,-108.55 0.24,-107.48 121.72 80
2 06/16/2024 08:55:09 -0.05,-108.57 0.91,-112.74 476.53 80
3 06/17/2024 08:39:02 -0.04,-108.56 -0.11,-108.20 40.60 80
4 06/19/2024 20:39:29 0.06,-108.53 -0.02,-108.96 49.42 80
5 06/20/2024 20:23:22 0.04,-108.52 0.95,-104.42 467.84 80
6 06/22/2024 08:42:27 -0.08,-108.54 0.19,-109.68 130.92 80
7 06/23/2024 08:26:20 -0.06,-108.53 -0.85,-105.15 385.68 80
8 06/24/2024 20:45:33 0.10,-108.48 -0.36,-110.43 222.84 80
9 06/25/2024 20:29:26 0.08,-108.48 0.68,-105.90 294.37 80
10 06/27/2024 08:48:32 -0.12,-108.50 0.45,-111.17 303.30 80
11 06/28/2024 08:32:24 -0.10,-108.49 -0.53,-106.62 213.57 80
